sat.trackr.live / text

‹ back to catalog

STARLINK-34054

NORAD 64141 · 2025-111U

PAYLOAD ACTIVE UNKNOWN

§ Identity

Operator
Country
US
Launch date
2025-05-24
Launch site
AFETR
Launch vehicle
Mass (kg)
RCS (m²)

Purposes: comms

External: N2YO · Heavens-Above · Gunter

§ Orbital elements

Epoch: 2026-09-19T18:03:52.917120Z

Period
94.27 min
Inclination
43.0029°
Eccentricity
0.0000658
Mean motion
15.27588010 rev/d
Perigee alt
482.6 km
Apogee alt
483.5 km
Semi-major
6,861.2 km
B*
4.2530e-4
RAAN
61.8297°
Arg perigee
275.5177°
Mean anomaly
84.5600°
Rev number
7,514

§ Raw data

STARLINK-340541 64141U 25111U   26262.75269580  .00011462  00000+0  42530-3 0  99962 64141  43.0029  61.8297 0000658 275.5177  84.5600 15.27588010 75149

JSON: /api/v1/satellites/64141 · /tle

For live sub-satellite position, see the globe view (requires WebGL).

§ Visibility from observer

Set your observer location to see the next 7 days of passes ≥ 10°. The values pass through the URL so the page stays shareable.

No JS? Fill the form by hand. The geolocation button needs JavaScript.